Regional Weather Roundup
Issued by NWS

Home | Current Version | Previous Version | Graphics & Text | Print | Product List | Glossary On
Versions: 1 2 3 4 5 6 7 8 9 10 11 12 13 14 15 16 17 18 19 20 21 22 23 24 25 26 27 28 29 30 31 32 33 34 35 36 37 38 39 40 41 42 43 44 45 46 47 48 49 50
000
ASUS43 KOAX 281510
RWRNE

WEATHER ROUNDUP FOR NEBRASKA
NATIONAL WEATHER SERVICE OMAHA NE
1000 AM CDT SAT MAR 28 2015

NOTES: SATELLITE DATA IS BEING USED TO AUGMENT CLOUD COVER ABOVE
       12000 FEET.
       "FAIR" INDICATES FEW OR NO CLOUDS BELOW 12,000 FEET WITH NO
       SIGNIFICANT WEATHER AND/OR OBSTRUCTIONS TO VISIBILITY.

  * THESE STATIONS DO NOT REPORT WEATHER SUCH AS RAIN...SNOW OR FOG.

NEZ001>004-019>022-054>056-281600-
NEBRASKA PANHANDLE

CITY           SKY/WX    TMP DP  RH WIND       PRES   REMARKS
SCOTTSBLUFF    SUNNY     49  33  54 NW6       30.00S
ALLIANCE       SUNNY     50  34  54 SW3       29.98S
CHADRON        SUNNY     47  35  63 W5        29.94F
KIMBALL        SUNNY     58  29  32 W12       30.02S
SIDNEY         SUNNY     57  31  37 W12       30.01S
$$

NEZ057>060-069>072-079>082-281600-
SOUTHWEST NEBRASKA

CITY           SKY/WX    TMP DP  RH WIND       PRES   REMARKS
NORTH PLATTE   SUNNY     47  37  68 VRB3      30.01S
IMPERIAL         N/A     51  33  50 W10       30.02R
LEXINGTON      SUNNY     43  33  68 SE3       30.03S
MCCOOK         SUNNY     46  34  62 E7        30.02S
OGALLALA       SUNNY     48  35  61 W7        30.01S
$$

NEZ005>010-023>029-035>040-094-281600-
NORTH CENTRAL NEBRASKA

CITY           SKY/WX    TMP DP  RH WIND       PRES   REMARKS
VALENTINE      SUNNY     46  34  62 S5        29.98F
AINSWORTH      SUNNY     50  35  55 S8        29.99F
BROKEN BOW     SUNNY     38  29  70 SE8       30.02S WCI  32
O`NEILL        SUNNY     38  30  74 S10       30.04S WCI  31
ORD            SUNNY     36  26  67 VRB3      30.04S
THEDFORD       SUNNY     51  37  59 SE9       30.00S
$$

NEZ041-046>049-061>064-073>077-083>087-281600-
SOUTH CENTRAL NEBRASKA

CITY           SKY/WX    TMP DP  RH WIND       PRES   REMARKS
GRAND ISLAND   SUNNY     39  27  62 SE7       30.08R WCI  34
AURORA         SUNNY     38  28  66 SE10      30.08R WCI  31
HASTINGS       SUNNY     39  26  59 SE12      30.05S WCI  32
HEBRON         SUNNY     41  27  56 SE12      30.08S
HOLDREGE       SUNNY     39  27  62 E8        30.04S WCI  33
KEARNEY *      SUNNY     37  25  60 SE9       30.06S WCI  31
YORK           SUNNY     37  28  70 SE13      30.08S WCI  29
$$

NEZ011>018-030>034-042>045-281600-
NORTHEAST NEBRASKA

CITY           SKY/WX    TMP DP  RH WIND       PRES   REMARKS
NORFOLK        SUNNY     36  27  69 SE14      30.10R WCI  27
ALBION         SUNNY     36  26  66 SE10      30.08S WCI  28
BLAIR          SUNNY     39  26  59 SE15      30.14R WCI  31
COLUMBUS *     SUNNY     36  25  64 SE10      30.13R WCI  28
FREMONT        SUNNY     39  28  63 SE15G22   30.14S WCI  31
TEKAMAH        SUNNY     40  26  57 SE22      30.17R WCI  30
WAYNE          SUNNY     36  28  73 SE17      30.13S WCI  26
$$

NEZ050>053-065>068-078-088>093-281600-
SOUTHEAST NEBRASKA

CITY           SKY/WX    TMP DP  RH WIND       PRES   REMARKS
LINCOLN        SUNNY     39  28  64 SE12      30.14R WCI  32
OMAHA EPPLEY   MOSUNNY   40  26  57 SE16      30.17R WCI  31
BEATRICE       SUNNY     40  27  59 SE15      30.11R WCI  32
FALLS CITY     SUNNY     41  29  62 SE14      30.15R
NEBRASKA CITY  SUNNY     39  28  62 SE13G20   30.15R WCI  32
PLATTSMOUTH    SUNNY     39  26  60 SE15      30.16R WCI  31
$$

NEZ044-045-051>053-067-281600-
OMAHA AREA

CITY           SKY/WX    TMP DP  RH WIND       PRES   REMARKS
OMAHA EPPLEY   MOSUNNY   40  26  57 SE16      30.17R WCI  31
BLAIR          SUNNY     39  26  59 SE15      30.14R WCI  31
FREMONT        SUNNY     39  28  63 SE15G22   30.14S WCI  31
MILLARD        SUNNY     39  27  62 SE15      30.16R WCI  31
OFFUTT AFB     SUNNY     40  26  57 SE13      30.16R WCI  32
PLATTSMOUTH    SUNNY     39  26  60 SE15      30.16R WCI  31
WAHOO          FAIR      38  28  68 SE16      30.14S WCI  28
$$


USA.gov is the U.S. government's official web portal to all federal, state and local government web resources and services.